Waterford Airport, Ireland

1:47 AM IST on April 24, 2017 (GMT +0100)
Waterford

Weather History for EIWF - March, 2014

Change the Weather History Date:

Saturday, March 15, 2014

  Actual Average Record
Temperature  
Mean Temperature 52 °F -  
Max Temperature 59 °F - - ()
Min Temperature 46 °F - - ()
Degree Days  
Heating Degree Days 12    
Growing Degree Days 2 (Base 50)    
Moisture  
Dew Point 45 °F    
Average Humidity 75    
Maximum Humidity 87    
Minimum Humidity 59    
Precipitation  
Precipitation 0.00 in - - ()
Sea Level Pressure  
Sea Level Pressure 30.45 in    
Wind  
Wind Speed 10 mph ()    
Max Wind Speed 20 mph    
Max Gust Speed 28 mph    
Visibility 6.2 miles    
Events      
T = Trace of Precipitation, MM = Missing Value Source: Averaged Metar Reports

Daily Weather History Graph

Daily Weather History Graph

Search for Another Location

Airport or City:

Trip Planner

Search our weather history database for the weather conditions in past years. The results will help you decide how hot, cold, wet, or windy it might be!

Date:

Astronomy

Mar. 15, 2014 Rise Set
Actual Time 6:42 AM GMT 6:32 PM GMT
Civil Twilight 6:09 AM GMT 7:06 PM GMT
Nautical Twilight 5:29 AM GMT 7:46 PM GMT
Astronomical Twilight 4:48 AM GMT 8:27 PM GMT
Moon 5:35 PM GMT (3/15) 5:53 AM GMT (3/15)
Length of Visible Light 12h 57m
Length of Day
11h 49m
Waxing Gibbous, 99% of the Moon is Illuminated
Mar 15
Waxing Gibbous
Mar 16
Full
Mar 24
Last Quarter
Mar 30
New
Apr 7
First Quarter

Hourly Weather History & Observations

Time (GMT) Temp. Windchill Dew Point Humidity Pressure Visibility Wind Dir Wind Speed Gust Speed Precip Events Conditions
7:30 AM 46.4 °F 42.9 °F 41.0 °F 81% 30.45 in - North 6.9 mph - N/A   Clear
8:00 AM 46.4 °F 43.5 °F 42.8 °F 87% 30.48 in - NNW 5.8 mph - N/A   Clear
8:30 AM 46.4 °F 42.4 °F 42.8 °F 87% 30.48 in - North 8.1 mph - N/A   Clear
9:00 AM 46.4 °F 40.4 °F 42.8 °F 87% 30.48 in - North 13.8 mph - N/A   Clear
9:30 AM 48.2 °F - 42.8 °F 82% 30.48 in 6.2 mi North 12.7 mph - N/A   Scattered Clouds
10:00 AM 48.2 °F - 42.8 °F 82% 30.48 in - NNW 16.1 mph 27.6 mph N/A   Clear
10:30 AM 50.0 °F - 44.6 °F 82% 30.48 in - NNW 11.5 mph - N/A   Clear
11:00 AM 51.8 °F - 44.6 °F 76% 30.48 in - NNW 12.7 mph - N/A   Clear
11:30 AM 53.6 °F - 44.6 °F 72% 30.48 in - NW 9.2 mph - N/A   Clear
12:00 PM 53.6 °F - 44.6 °F 72% 30.48 in - NW 10.4 mph - N/A   Clear
12:30 PM 53.6 °F - 44.6 °F 72% 30.48 in - NNW 15.0 mph - N/A   Clear
1:00 PM 57.2 °F - 46.4 °F 67% 30.48 in - NNW 16.1 mph 27.6 mph N/A   Clear
1:30 PM 57.2 °F - 44.6 °F 63% 30.45 in - NNW 19.6 mph - N/A   Clear
2:00 PM 57.2 °F - 46.4 °F 67% 30.45 in - NNW 15.0 mph - N/A   Clear
2:30 PM 59.0 °F - 46.4 °F 63% 30.45 in - NW 15.0 mph - N/A   Clear
3:00 PM 59.0 °F - 44.6 °F 59% 30.45 in - NNW 13.8 mph - N/A   Clear
3:30 PM 59.0 °F - 46.4 °F 63% 30.45 in - NNW 13.8 mph - N/A   Clear
4:00 PM 57.2 °F - 46.4 °F 67% 30.42 in - NNW 18.4 mph - N/A   Clear
4:30 PM 57.2 °F - 46.4 °F 67% 30.42 in - NNW 15.0 mph - N/A   Clear
5:00 PM 55.4 °F - 46.4 °F 72% 30.42 in - NNW 11.5 mph 23.0 mph N/A   Clear
5:30 PM 55.4 °F - 46.4 °F 72% 30.42 in - NW 10.4 mph - N/A   Clear
6:00 PM 53.6 °F - 44.6 °F 72% 30.42 in - NW 6.9 mph - N/A   Clear
6:30 PM 51.8 °F - 44.6 °F 76% 30.42 in - NW 12.7 mph - N/A   Clear
7:00 PM 51.8 °F - 44.6 °F 76% 30.42 in - NNW 12.7 mph - N/A   Clear
7:30 PM 50.0 °F - 44.6 °F 82% 30.45 in - NNW 8.1 mph - N/A   Clear
8:00 PM 50.0 °F - 44.6 °F 82% 30.45 in - NNW 9.2 mph - N/A   Clear
8:30 PM 48.2 °F - 44.6 °F 87% 30.45 in - NNW 9.2 mph - N/A   Clear